Location: Gajan
(43.0218°N, 1.1244°E)
Time: 02:04:55
(UTC+00:00)

USA 186 - Pass Details

Date: 22 April 2021
Orbit: 264 x 460 km, 96.9° (Epoch: 09 May)

Event Time Altitude Azimuth Distance (km) Brightness Sun altitude
Rises 19:47:17 0° 179° (S) 2,420 5.3 -11.0°
Reaches altitude 10° 19:49:25 10° 186° (S) 1,530 4.4 -11.4°
Maximum altitude 19:52:35 45° 260° (W) 576 2.8 -11.9°
Drops below altitude 10° 19:55:35 10° 336° (NNW) 1,449 5.3 -12.4°
Sets 19:57:33 0° 342° (NNW) 2,274 6.3 -12.7°
